WXM80 ListenWXM80 Stop

You find our weather info also at:

UK Metoffice

WeatherCloud

Weather Underground

Northeastern Weather Network

AWEKAS

Citizen Weather Observer Program (CWOP)

HAMweather, WeatherForYou, PWS Weather


Weather Underground History page Text

Daily Summary for February 14, 2018 Units:  Both    English   Metric
« Previous Day
Next Day »
Daily Weekly Monthly Yearly Custom
  High: Low: Average:
Temperature: 50.9 °F /  10.5 °C 31.3 °F /  -0.4 °C 41 °F /  5 °C
Dew Point: 42.2 °F /  5.7 °C 26.2 °F /  -3.2 °C 34.9 °F /  1.6 °C
Humidity: 94 % 61 % 80 %
Wind Speed: 7.4 mph /  11.9 km/h - 1.9 mph /  3.1 km/h
Wind Gust: 12.7 mph /  20.4 km/h - -
Wind:- - SW
Pressure: 30.32 in /  1026.6 hPa 29.79 in /  1008.7 hPa -
Precipitation: 0.00 in /  0 mm    
Historical Graphs
 
 
Tabular Data for February 14, 2018
Time Temperature Dew Point Pressure Wind Wind Speed Wind Gust Humidity Rainfall Rate (Hourly)
00:03 31.3 °F /  -0.4 °C 26.4 °F /  -3.1 °C 30.31 in /  1026.3 hPa Calm     82 % 0.00 in /  0 mm
00:08 31.4 °F /  -0.3 °C 26.5 °F /  -3.1 °C 30.31 in /  1026.3 hPa Calm     82 % 0.00 in /  0 mm
00:13 31.4 °F /  -0.3 °C 26.2 °F /  -3.2 °C 30.31 in /  1026.3 hPa Calm     81 % 0.00 in /  0 mm
00:18 31.4 °F /  -0.3 °C 26.2 °F /  -3.2 °C 30.31 in /  1026.3 hPa Calm   1.2 mph /  1.9 km/h 81 % 0.00 in /  0 mm
00:23 31.4 °F /  -0.3 °C 26.5 °F /  -3.1 °C 30.31 in /  1026.3 hPa SSE 0.5 mph /  0.8 km/h 1.2 mph /  1.9 km/h 82 % 0.00 in /  0 mm
00:28 31.5 °F /  -0.3 °C 26.6 °F /  -3 °C 30.31 in /  1026.3 hPa Calm   1.2 mph /  1.9 km/h 82 % 0.00 in /  0 mm
00:33 31.5 °F /  -0.3 °C 26.6 °F /  -3 °C 30.32 in /  1026.6 hPa Calm     82 % 0.00 in /  0 mm
00:38 31.6 °F /  -0.2 °C 26.7 °F /  -2.9 °C 30.32 in /  1026.6 hPa Calm   1.2 mph /  1.9 km/h 82 % 0.00 in /  0 mm
00:43 31.7 °F /  -0.2 °C 26.8 °F /  -2.9 °C 30.31 in /  1026.3 hPa Calm     82 % 0.00 in /  0 mm
00:48 31.7 °F /  -0.2 °C 26.8 °F /  -2.9 °C 30.30 in /  1026 hPa Calm     82 % 0.00 in /  0 mm
00:53 31.8 °F /  -0.1 °C 26.9 °F /  -2.8 °C 30.30 in /  1026 hPa Calm     82 % 0.00 in /  0 mm
00:58 31.8 °F /  -0.1 °C 26.9 °F /  -2.8 °C 30.29 in /  1025.6 hPa Calm     82 % 0.00 in /  0 mm
01:03 31.8 °F /  -0.1 °C 26.9 °F /  -2.8 °C 30.29 in /  1025.6 hPa Calm     82 % 0.00 in /  0 mm
01:08 31.9 °F /  -0.1 °C 27.0 °F /  -2.8 °C 30.29 in /  1025.6 hPa Calm     82 % 0.00 in /  0 mm
01:13 31.9 °F /  -0.1 °C 27.0 °F /  -2.8 °C 30.29 in /  1025.6 hPa Calm     82 % 0.00 in /  0 mm
01:18 31.9 °F /  -0.1 °C 27.0 °F /  -2.8 °C 30.29 in /  1025.6 hPa Calm     82 % 0.00 in /  0 mm
01:23 31.9 °F /  -0.1 °C 27.0 °F /  -2.8 °C 30.28 in /  1025.3 hPa Calm     82 % 0.00 in /  0 mm
01:28 32.0 °F /  0 °C 27.1 °F /  -2.7 °C 30.28 in /  1025.3 hPa Calm     82 % 0.00 in /  0 mm
01:34 32.0 °F /  0 °C 27.1 °F /  -2.7 °C 30.28 in /  1025.3 hPa Calm     82 % 0.00 in /  0 mm
01:39 32.0 °F /  0 °C 27.1 °F /  -2.7 °C 30.27 in /  1024.9 hPa Calm     82 % 0.00 in /  0 mm
01:44 32.0 °F /  0 °C 27.1 °F /  -2.7 °C 30.27 in /  1024.9 hPa Calm     82 % 0.00 in /  0 mm
01:49 32.0 °F /  0 °C 27.1 °F /  -2.7 °C 30.26 in /  1024.6 hPa Calm     82 % 0.00 in /  0 mm
01:54 32.0 °F /  0 °C 27.1 °F /  -2.7 °C 30.26 in /  1024.6 hPa Calm     82 % 0.00 in /  0 mm
01:59 32.1 °F /  0.1 °C 27.2 °F /  -2.7 °C 30.25 in /  1024.3 hPa Calm     82 % 0.00 in /  0 mm
02:04 32.1 °F /  0.1 °C 27.2 °F /  -2.7 °C 30.25 in /  1024.3 hPa Calm     82 % 0.00 in /  0 mm
02:09 32.1 °F /  0.1 °C 27.2 °F /  -2.7 °C 30.25 in /  1024.3 hPa Calm   1.2 mph /  1.9 km/h 82 % 0.00 in /  0 mm
02:14 32.1 °F /  0.1 °C 27.2 °F /  -2.7 °C 30.25 in /  1024.3 hPa Calm     82 % 0.00 in /  0 mm
02:19 32.1 °F /  0.1 °C 27.5 °F /  -2.5 °C 30.25 in /  1024.3 hPa Calm   2.3 mph /  3.7 km/h 83 % 0.00 in /  0 mm
02:24 32.1 °F /  0.1 °C 27.5 °F /  -2.5 °C 30.25 in /  1024.3 hPa WSW 1.0 mph /  1.6 km/h 3.5 mph /  5.6 km/h 83 % 0.00 in /  0 mm
02:29 32.1 °F /  0.1 °C 27.5 °F /  -2.5 °C 30.25 in /  1024.3 hPa WSW 0.9 mph /  1.4 km/h 3.5 mph /  5.6 km/h 83 % 0.00 in /  0 mm
02:34 32.2 °F /  0.1 °C 27.6 °F /  -2.4 °C 30.25 in /  1024.3 hPa Calm     83 % 0.00 in /  0 mm
02:39 32.2 °F /  0.1 °C 27.6 °F /  -2.4 °C 30.25 in /  1024.3 hPa West 1.4 mph /  2.3 km/h 3.5 mph /  5.6 km/h 83 % 0.00 in /  0 mm
02:44 32.2 °F /  0.1 °C 27.9 °F /  -2.3 °C 30.25 in /  1024.3 hPa West 1.2 mph /  1.9 km/h 3.5 mph /  5.6 km/h 84 % 0.00 in /  0 mm
02:50 32.3 °F /  0.2 °C 28.0 °F /  -2.2 °C 30.24 in /  1023.9 hPa Calm     84 % 0.00 in /  0 mm
02:55 32.3 °F /  0.2 °C 28.0 °F /  -2.2 °C 30.23 in /  1023.6 hPa West 1.5 mph /  2.4 km/h 3.5 mph /  5.6 km/h 84 % 0.00 in /  0 mm
03:00 32.3 °F /  0.2 °C 28.0 °F /  -2.2 °C 30.23 in /  1023.6 hPa Calm     84 % 0.00 in /  0 mm
03:05 32.3 °F /  0.2 °C 28.0 °F /  -2.2 °C 30.23 in /  1023.6 hPa West 1.2 mph /  1.9 km/h 2.3 mph /  3.7 km/h 84 % 0.00 in /  0 mm
03:10 32.3 °F /  0.2 °C 28.0 °F /  -2.2 °C 30.23 in /  1023.6 hPa West 0.8 mph /  1.3 km/h 2.3 mph /  3.7 km/h 84 % 0.00 in /  0 mm
03:15 32.3 °F /  0.2 °C 28.0 °F /  -2.2 °C 30.22 in /  1023.2 hPa Calm   1.2 mph /  1.9 km/h 84 % 0.00 in /  0 mm
03:20 32.3 °F /  0.2 °C 28.0 °F /  -2.2 °C 30.22 in /  1023.2 hPa West 0.6 mph /  1 km/h 2.3 mph /  3.7 km/h 84 % 0.00 in /  0 mm
03:25 32.3 °F /  0.2 °C 28.0 °F /  -2.2 °C 30.22 in /  1023.2 hPa Calm     84 % 0.00 in /  0 mm
03:30 32.3 °F /  0.2 °C 28.0 °F /  -2.2 °C 30.21 in /  1022.9 hPa West 0.1 mph /  0.2 km/h 1.2 mph /  1.9 km/h 84 % 0.00 in /  0 mm
03:35 32.3 °F /  0.2 °C 28.0 °F /  -2.2 °C 30.20 in /  1022.6 hPa West 0.2 mph /  0.3 km/h 1.2 mph /  1.9 km/h 84 % 0.00 in /  0 mm
03:40 32.3 °F /  0.2 °C 28.0 °F /  -2.2 °C 30.18 in /  1021.9 hPa Calm     84 % 0.00 in /  0 mm
03:45 32.3 °F /  0.2 °C 28.0 °F /  -2.2 °C 30.18 in /  1021.9 hPa Calm     84 % 0.00 in /  0 mm
03:50 32.3 °F /  0.2 °C 28.0 °F /  -2.2 °C 30.17 in /  1021.6 hPa Calm     84 % 0.00 in /  0 mm
03:55 32.3 °F /  0.2 °C 28.0 °F /  -2.2 °C 30.17 in /  1021.6 hPa Calm     84 % 0.00 in /  0 mm
04:00 32.3 °F /  0.2 °C 28.3 °F /  -2.1 °C 30.17 in /  1021.6 hPa Calm     85 % 0.00 in /  0 mm
04:05 32.2 °F /  0.1 °C 28.2 °F /  -2.1 °C 30.17 in /  1021.6 hPa Calm     85 % 0.00 in /  0 mm
04:10 32.2 °F /  0.1 °C 28.2 °F /  -2.1 °C 30.17 in /  1021.6 hPa Calm     85 % 0.00 in /  0 mm
04:15 32.2 °F /  0.1 °C 28.2 °F /  -2.1 °C 30.17 in /  1021.6 hPa Calm     85 % 0.00 in /  0 mm
04:20 32.2 °F /  0.1 °C 28.2 °F /  -2.1 °C 30.17 in /  1021.6 hPa Calm     85 % 0.00 in /  0 mm
04:26 32.2 °F /  0.1 °C 28.2 °F /  -2.1 °C 30.18 in /  1021.9 hPa Calm     85 % 0.00 in /  0 mm
04:31 32.2 °F /  0.1 °C 28.5 °F /  -1.9 °C 30.18 in /  1021.9 hPa Calm   2.0 mph /  3.2 km/h 86 % 0.00 in /  0 mm
04:36 32.3 °F /  0.2 °C 28.6 °F /  -1.9 °C 30.18 in /  1021.9 hPa Calm     86 % 0.00 in /  0 mm
04:41 32.3 °F /  0.2 °C 28.6 °F /  -1.9 °C 30.17 in /  1021.6 hPa Calm     86 % 0.00 in /  0 mm
04:46 32.3 °F /  0.2 °C 28.6 °F /  -1.9 °C 30.17 in /  1021.6 hPa Calm     86 % 0.00 in /  0 mm
04:51 32.3 °F /  0.2 °C 28.6 °F /  -1.9 °C 30.17 in /  1021.6 hPa Calm     86 % 0.00 in /  0 mm
04:56 32.3 °F /  0.2 °C 28.6 °F /  -1.9 °C 30.18 in /  1021.9 hPa Calm     86 % 0.00 in /  0 mm
05:01 32.4 °F /  0.2 °C 29.0 °F /  -1.7 °C 30.18 in /  1021.9 hPa Calm     87 % 0.00 in /  0 mm
05:06 32.4 °F /  0.2 °C 29.0 °F /  -1.7 °C 30.18 in /  1021.9 hPa Calm     87 % 0.00 in /  0 mm
05:11 32.5 °F /  0.3 °C 29.1 °F /  -1.6 °C 30.16 in /  1021.2 hPa Calm     87 % 0.00 in /  0 mm
05:16 32.5 °F /  0.3 °C 29.3 °F /  -1.5 °C 30.17 in /  1021.6 hPa Calm     88 % 0.00 in /  0 mm
05:21 32.6 °F /  0.3 °C 29.4 °F /  -1.4 °C 30.17 in /  1021.6 hPa Calm   1.2 mph /  1.9 km/h 88 % 0.00 in /  0 mm
05:26 32.6 °F /  0.3 °C 29.4 °F /  -1.4 °C 30.17 in /  1021.6 hPa Calm     88 % 0.00 in /  0 mm
05:31 32.7 °F /  0.4 °C 29.8 °F /  -1.2 °C 30.17 in /  1021.6 hPa Calm     89 % 0.00 in /  0 mm
05:36 32.8 °F /  0.4 °C 29.9 °F /  -1.2 °C 30.16 in /  1021.2 hPa Calm   1.2 mph /  1.9 km/h 89 % 0.00 in /  0 mm
05:41 32.8 °F /  0.4 °C 29.9 °F /  -1.2 °C 30.16 in /  1021.2 hPa Calm     89 % 0.00 in /  0 mm
05:46 32.8 °F /  0.4 °C 29.9 °F /  -1.2 °C 30.16 in /  1021.2 hPa Calm     89 % 0.00 in /  0 mm
05:51 32.8 °F /  0.4 °C 29.9 °F /  -1.2 °C 30.16 in /  1021.2 hPa Calm     89 % 0.00 in /  0 mm
05:56 32.9 °F /  0.5 °C 30.0 °F /  -1.1 °C 30.15 in /  1020.9 hPa Calm     89 % 0.00 in /  0 mm
06:01 32.9 °F /  0.5 °C 30.3 °F /  -0.9 °C 30.15 in /  1020.9 hPa Calm     90 % 0.00 in /  0 mm
06:06 32.9 °F /  0.5 °C 30.3 °F /  -0.9 °C 30.15 in /  1020.9 hPa Calm     90 % 0.00 in /  0 mm
06:11 32.9 °F /  0.5 °C 30.3 °F /  -0.9 °C 30.14 in /  1020.5 hPa Calm     90 % 0.00 in /  0 mm
06:16 32.9 °F /  0.5 °C 30.3 °F /  -0.9 °C 30.14 in /  1020.5 hPa Calm     90 % 0.00 in /  0 mm
06:21 32.9 °F /  0.5 °C 30.3 °F /  -0.9 °C 30.14 in /  1020.5 hPa Calm     90 % 0.00 in /  0 mm
06:26 32.9 °F /  0.5 °C 30.3 °F /  -0.9 °C 30.14 in /  1020.5 hPa Calm     90 % 0.00 in /  0 mm
06:32 32.9 °F /  0.5 °C 30.3 °F /  -0.9 °C 30.14 in /  1020.5 hPa Calm     90 % 0.00 in /  0 mm
06:37 32.9 °F /  0.5 °C 30.3 °F /  -0.9 °C 30.15 in /  1020.9 hPa Calm     90 % 0.00 in /  0 mm
06:42 32.9 °F /  0.5 °C 30.3 °F /  -0.9 °C 30.14 in /  1020.5 hPa Calm     90 % 0.00 in /  0 mm
06:47 33.0 °F /  0.6 °C 30.7 °F /  -0.7 °C 30.13 in /  1020.2 hPa Calm   2.3 mph /  3.7 km/h 91 % 0.00 in /  0 mm
06:52 33.1 °F /  0.6 °C 30.8 °F /  -0.7 °C 30.13 in /  1020.2 hPa Calm     91 % 0.00 in /  0 mm
06:57 33.1 °F /  0.6 °C 30.8 °F /  -0.7 °C 30.13 in /  1020.2 hPa Calm     91 % 0.00 in /  0 mm
07:02 33.1 °F /  0.6 °C 30.8 °F /  -0.7 °C 30.13 in /  1020.2 hPa Calm     91 % 0.00 in /  0 mm
07:07 33.1 °F /  0.6 °C 30.8 °F /  -0.7 °C 30.13 in /  1020.2 hPa Calm     91 % 0.00 in /  0 mm
07:12 33.1 °F /  0.6 °C 30.8 °F /  -0.7 °C 30.13 in /  1020.2 hPa Calm     91 % 0.00 in /  0 mm
07:17 33.2 °F /  0.7 °C 30.9 °F /  -0.6 °C 30.14 in /  1020.5 hPa Calm     91 % 0.00 in /  0 mm
07:22 33.2 °F /  0.7 °C 30.9 °F /  -0.6 °C 30.13 in /  1020.2 hPa Calm     91 % 0.00 in /  0 mm
07:27 33.4 °F /  0.8 °C 31.3 °F /  -0.4 °C 30.13 in /  1020.2 hPa Calm     92 % 0.00 in /  0 mm
07:32 33.4 °F /  0.8 °C 31.3 °F /  -0.4 °C 30.14 in /  1020.5 hPa Calm     92 % 0.00 in /  0 mm
07:37 33.4 °F /  0.8 °C 31.3 °F /  -0.4 °C 30.13 in /  1020.2 hPa Calm     92 % 0.00 in /  0 mm
07:42 33.5 °F /  0.8 °C 31.4 °F /  -0.3 °C 30.13 in /  1020.2 hPa Calm     92 % 0.00 in /  0 mm
07:47 33.6 °F /  0.9 °C 31.5 °F /  -0.3 °C 30.14 in /  1020.5 hPa Calm     92 % 0.00 in /  0 mm
07:52 33.7 °F /  0.9 °C 31.6 °F /  -0.2 °C 30.13 in /  1020.2 hPa Calm   1.2 mph /  1.9 km/h 92 % 0.00 in /  0 mm
07:57 33.8 °F /  1 °C 32.0 °F /  0 °C 30.13 in /  1020.2 hPa Calm   1.2 mph /  1.9 km/h 93 % 0.00 in /  0 mm
08:02 33.9 °F /  1.1 °C 32.1 °F /  0.1 °C 30.12 in /  1019.9 hPa Calm     93 % 0.00 in /  0 mm
08:07 34.1 °F /  1.2 °C 32.3 °F /  0.2 °C 30.13 in /  1020.2 hPa Calm     93 % 0.00 in /  0 mm
08:12 34.3 °F /  1.3 °C 32.5 °F /  0.3 °C 30.12 in /  1019.9 hPa Calm     93 % 0.00 in /  0 mm
08:18 34.4 °F /  1.3 °C 32.6 °F /  0.3 °C 30.13 in /  1020.2 hPa Calm     93 % 0.00 in /  0 mm
08:23 34.6 °F /  1.4 °C 32.8 °F /  0.4 °C 30.12 in /  1019.9 hPa Calm     93 % 0.00 in /  0 mm
08:28 34.9 °F /  1.6 °C 33.3 °F /  0.7 °C 30.12 in /  1019.9 hPa West 0.8 mph /  1.3 km/h 1.0 mph /  1.6 km/h 94 % 0.00 in /  0 mm
08:33 35.0 °F /  1.7 °C 33.4 °F /  0.8 °C 30.12 in /  1019.9 hPa Calm     94 % 0.00 in /  0 mm
08:38 35.2 °F /  1.8 °C 33.6 °F /  0.9 °C 30.12 in /  1019.9 hPa SW 1.2 mph /  1.9 km/h 2.3 mph /  3.7 km/h 94 % 0.00 in /  0 mm
08:43 35.4 °F /  1.9 °C 33.8 °F /  1 °C 30.12 in /  1019.9 hPa SSW 3.0 mph /  4.8 km/h 4.6 mph /  7.4 km/h 94 % 0.00 in /  0 mm
08:48 35.6 °F /  2 °C 34.0 °F /  1.1 °C 30.12 in /  1019.9 hPa WSW 2.9 mph /  4.7 km/h 5.8 mph /  9.3 km/h 94 % 0.00 in /  0 mm
08:53 35.9 °F /  2.2 °C 34.3 °F /  1.3 °C 30.12 in /  1019.9 hPa SW 2.5 mph /  4 km/h 4.6 mph /  7.4 km/h 94 % 0.00 in /  0 mm
08:58 36.2 °F /  2.3 °C 34.6 °F /  1.4 °C 30.11 in /  1019.5 hPa SW 2.9 mph /  4.7 km/h 6.9 mph /  11.1 km/h 94 % 0.00 in /  0 mm
09:03 36.3 °F /  2.4 °C 34.7 °F /  1.5 °C 30.11 in /  1019.5 hPa SW 2.9 mph /  4.7 km/h 5.8 mph /  9.3 km/h 94 % 0.00 in /  0 mm
09:08 36.5 °F /  2.5 °C 34.9 °F /  1.6 °C 30.11 in /  1019.5 hPa WSW 2.5 mph /  4 km/h 5.0 mph /  8 km/h 94 % 0.00 in /  0 mm
09:13 36.6 °F /  2.6 °C 35.0 °F /  1.7 °C 30.11 in /  1019.5 hPa South 1.1 mph /  1.8 km/h 3.5 mph /  5.6 km/h 94 % 0.00 in /  0 mm
09:18 36.8 °F /  2.7 °C 35.2 °F /  1.8 °C 30.10 in /  1019.2 hPa SSW 3.4 mph /  5.5 km/h 5.8 mph /  9.3 km/h 94 % 0.00 in /  0 mm
09:23 37.1 °F /  2.8 °C 35.3 °F /  1.8 °C 30.10 in /  1019.2 hPa SW 1.9 mph /  3.1 km/h 3.5 mph /  5.6 km/h 93 % 0.00 in /  0 mm
09:28 37.3 °F /  2.9 °C 35.5 °F /  1.9 °C 30.10 in /  1019.2 hPa SW 1.1 mph /  1.8 km/h 3.5 mph /  5.6 km/h 93 % 0.00 in /  0 mm
09:33 37.5 °F /  3.1 °C 35.7 °F /  2.1 °C 30.11 in /  1019.5 hPa SW 1.2 mph /  1.9 km/h 5.0 mph /  8 km/h 93 % 0.00 in /  0 mm
09:38 37.8 °F /  3.2 °C 35.7 °F /  2.1 °C 30.10 in /  1019.2 hPa SSW 0.4 mph /  0.6 km/h 3.5 mph /  5.6 km/h 92 % 0.00 in /  0 mm
09:43 38.0 °F /  3.3 °C 35.9 °F /  2.2 °C 30.10 in /  1019.2 hPa SW 4.8 mph /  7.7 km/h 8.1 mph /  13 km/h 92 % 0.00 in /  0 mm
09:48 38.4 °F /  3.6 °C 36.0 °F /  2.2 °C 30.09 in /  1018.8 hPa SW 2.8 mph /  4.5 km/h 5.8 mph /  9.3 km/h 91 % 0.00 in /  0 mm
09:53 38.8 °F /  3.8 °C 36.1 °F /  2.3 °C 30.09 in /  1018.8 hPa SW 3.4 mph /  5.5 km/h 6.9 mph /  11.1 km/h 90 % 0.00 in /  0 mm
09:59 39.2 °F /  4 °C 36.2 °F /  2.3 °C 30.08 in /  1018.5 hPa WSW 1.8 mph /  2.9 km/h 5.8 mph /  9.3 km/h 89 % 0.00 in /  0 mm
10:04 39.7 °F /  4.3 °C 36.7 °F /  2.6 °C 30.08 in /  1018.5 hPa WSW 2.3 mph /  3.7 km/h 5.8 mph /  9.3 km/h 89 % 0.00 in /  0 mm
10:09 40.1 °F /  4.5 °C 36.5 °F /  2.5 °C 30.08 in /  1018.5 hPa SSW 4.5 mph /  7.2 km/h 6.9 mph /  11.1 km/h 87 % 0.00 in /  0 mm
10:14 40.6 °F /  4.8 °C 36.7 °F /  2.6 °C 30.08 in /  1018.5 hPa SW 6.2 mph /  10 km/h 8.1 mph /  13 km/h 86 % 0.00 in /  0 mm
10:19 41.1 °F /  5.1 °C 36.6 °F /  2.6 °C 30.07 in /  1018.2 hPa SW 5.2 mph /  8.4 km/h 12.0 mph /  19.3 km/h 84 % 0.00 in /  0 mm
10:24 41.8 °F /  5.4 °C 37.0 °F /  2.8 °C 30.07 in /  1018.2 hPa SW 4.2 mph /  6.8 km/h 11.0 mph /  17.7 km/h 83 % 0.00 in /  0 mm
10:29 42.4 °F /  5.8 °C 37.0 °F /  2.8 °C 30.08 in /  1018.5 hPa SW 5.8 mph /  9.3 km/h 8.1 mph /  13 km/h 81 % 0.00 in /  0 mm
10:34 43.0 °F /  6.1 °C 37.6 °F /  3.1 °C 30.07 in /  1018.2 hPa SSW 3.3 mph /  5.3 km/h 5.8 mph /  9.3 km/h 81 % 0.00 in /  0 mm
10:39 43.6 °F /  6.4 °C 37.2 °F /  2.9 °C 30.07 in /  1018.2 hPa SSW 6.2 mph /  10 km/h 9.2 mph /  14.8 km/h 78 % 0.00 in /  0 mm
10:44 44.1 °F /  6.7 °C 36.7 °F /  2.6 °C 30.06 in /  1017.8 hPa SW 3.6 mph /  5.8 km/h 6.9 mph /  11.1 km/h 75 % 0.00 in /  0 mm
10:49 44.5 °F /  6.9 °C 36.7 °F /  2.6 °C 30.06 in /  1017.8 hPa West 4.8 mph /  7.7 km/h 7.0 mph /  11.3 km/h 74 % 0.00 in /  0 mm
10:54 45.0 °F /  7.2 °C 36.5 °F /  2.5 °C 30.05 in /  1017.5 hPa West 6.4 mph /  10.3 km/h 12.7 mph /  20.4 km/h 72 % 0.00 in /  0 mm
10:59 45.6 °F /  7.6 °C 36.7 °F /  2.6 °C 30.05 in /  1017.5 hPa WSW 4.4 mph /  7.1 km/h 11.5 mph /  18.5 km/h 71 % 0.00 in /  0 mm
11:04 46.0 °F /  7.8 °C 36.8 °F /  2.7 °C 30.05 in /  1017.5 hPa SW 3.2 mph /  5.1 km/h 4.6 mph /  7.4 km/h 70 % 0.00 in /  0 mm
11:09 46.2 °F /  7.9 °C 36.6 °F /  2.6 °C 30.05 in /  1017.5 hPa WSW 3.7 mph /  6 km/h 6.9 mph /  11.1 km/h 69 % 0.00 in /  0 mm
11:14 46.5 °F /  8.1 °C 36.9 °F /  2.7 °C 30.05 in /  1017.5 hPa West 5.1 mph /  8.2 km/h 9.2 mph /  14.8 km/h 69 % 0.00 in /  0 mm
11:19 46.8 °F /  8.2 °C 37.5 °F /  3.1 °C 30.05 in /  1017.5 hPa West 4.8 mph /  7.7 km/h 8.0 mph /  12.9 km/h 70 % 0.00 in /  0 mm
11:25 47.1 °F /  8.4 °C 36.7 °F /  2.6 °C 30.05 in /  1017.5 hPa SW 4.1 mph /  6.6 km/h 10.4 mph /  16.7 km/h 67 % 0.00 in /  0 mm
11:30 47.4 °F /  8.6 °C 37.0 °F /  2.8 °C 30.05 in /  1017.5 hPa WNW 3.9 mph /  6.3 km/h 5.8 mph /  9.3 km/h 67 % 0.00 in /  0 mm
11:35 47.6 °F /  8.7 °C 37.2 °F /  2.9 °C 30.05 in /  1017.5 hPa West 1.6 mph /  2.6 km/h 6.0 mph /  9.7 km/h 67 % 0.00 in /  0 mm
11:40 47.9 °F /  8.8 °C 37.1 °F /  2.8 °C 30.04 in /  1017.2 hPa WSW 4.4 mph /  7.1 km/h 5.8 mph /  9.3 km/h 66 % 0.00 in /  0 mm
11:45 48.0 °F /  8.9 °C 36.8 °F /  2.7 °C 30.03 in /  1016.8 hPa West 3.6 mph /  5.8 km/h 9.2 mph /  14.8 km/h 65 % 0.00 in /  0 mm
11:50 48.1 °F /  8.9 °C 36.9 °F /  2.7 °C 30.03 in /  1016.8 hPa SW 4.6 mph /  7.4 km/h 5.8 mph /  9.3 km/h 65 % 0.00 in /  0 mm
11:54 48.1 °F /  8.9 °C 36.9 °F /  2.7 °C 30.03 in /  1016.8 hPa SW 0.9 mph /  1.4 km/h 5.8 mph /  9.3 km/h 65 % 0.00 in /  0 mm
12:00 48.2 °F /  9 °C 37.0 °F /  2.8 °C 30.02 in /  1016.5 hPa WSW 6.8 mph /  10.9 km/h 11.0 mph /  17.7 km/h 65 % 0.00 in /  0 mm
12:05 47.9 °F /  8.8 °C 37.1 °F /  2.8 °C 30.02 in /  1016.5 hPa West 2.9 mph /  4.7 km/h 5.8 mph /  9.3 km/h 66 % 0.00 in /  0 mm
12:10 47.9 °F /  8.8 °C 36.7 °F /  2.6 °C 30.01 in /  1016.1 hPa WNW 5.4 mph /  8.7 km/h 9.2 mph /  14.8 km/h 65 % 0.00 in /  0 mm
12:15 47.8 °F /  8.8 °C 36.6 °F /  2.6 °C 30.01 in /  1016.1 hPa WSW 5.7 mph /  9.2 km/h 10.4 mph /  16.7 km/h 65 % 0.00 in /  0 mm
12:20 47.9 °F /  8.8 °C 37.1 °F /  2.8 °C 30.00 in /  1015.8 hPa WSW 6.0 mph /  9.7 km/h 9.2 mph /  14.8 km/h 66 % 0.00 in /  0 mm
12:25 48.1 °F /  8.9 °C 36.9 °F /  2.7 °C 30.00 in /  1015.8 hPa WSW 3.9 mph /  6.3 km/h 5.8 mph /  9.3 km/h 65 % 0.00 in /  0 mm
12:30 48.4 °F /  9.1 °C 37.2 °F /  2.9 °C 30.00 in /  1015.8 hPa WSW 5.0 mph /  8 km/h 8.1 mph /  13 km/h 65 % 0.00 in /  0 mm
12:35 48.6 °F /  9.2 °C 37.0 °F /  2.8 °C 30.00 in /  1015.8 hPa WNW 4.4 mph /  7.1 km/h 6.9 mph /  11.1 km/h 64 % 0.00 in /  0 mm
12:40 48.8 °F /  9.3 °C 37.2 °F /  2.9 °C 29.99 in /  1015.5 hPa NW 3.3 mph /  5.3 km/h 6.9 mph /  11.1 km/h 64 % 0.00 in /  0 mm
12:45 49.0 °F /  9.4 °C 36.9 °F /  2.7 °C 29.99 in /  1015.5 hPa West 4.2 mph /  6.8 km/h 5.8 mph /  9.3 km/h 63 % 0.00 in /  0 mm
12:50 49.2 °F /  9.6 °C 37.1 °F /  2.8 °C 29.99 in /  1015.5 hPa NW 3.5 mph /  5.6 km/h 4.6 mph /  7.4 km/h 63 % 0.00 in /  0 mm
12:55 49.2 °F /  9.6 °C 37.9 °F /  3.3 °C 29.98 in /  1015.1 hPa NNW 2.9 mph /  4.7 km/h 5.8 mph /  9.3 km/h 65 % 0.00 in /  0 mm
13:00 49.2 °F /  9.6 °C 37.9 °F /  3.3 °C 29.98 in /  1015.1 hPa NNW 3.0 mph /  4.8 km/h 4.6 mph /  7.4 km/h 65 % 0.00 in /  0 mm
13:05 49.3 °F /  9.6 °C 37.6 °F /  3.1 °C 29.98 in /  1015.1 hPa NNW 3.4 mph /  5.5 km/h 4.6 mph /  7.4 km/h 64 % 0.00 in /  0 mm
13:10 49.5 °F /  9.7 °C 38.2 °F /  3.4 °C 29.97 in /  1014.8 hPa NNW 2.7 mph /  4.3 km/h 4.0 mph /  6.4 km/h 65 % 0.00 in /  0 mm
13:15 49.7 °F /  9.8 °C 38.0 °F /  3.3 °C 29.97 in /  1014.8 hPa WNW 2.4 mph /  3.9 km/h 6.0 mph /  9.7 km/h 64 % 0.00 in /  0 mm
13:20 50.0 °F /  10 °C 38.3 °F /  3.5 °C 29.96 in /  1014.4 hPa WSW 2.0 mph /  3.2 km/h 4.6 mph /  7.4 km/h 64 % 0.00 in /  0 mm
13:26 50.2 °F /  10.1 °C 38.1 °F /  3.4 °C 29.96 in /  1014.4 hPa WNW 2.0 mph /  3.2 km/h 6.0 mph /  9.7 km/h 63 % 0.00 in /  0 mm
13:31 50.5 °F /  10.3 °C 38.0 °F /  3.3 °C 29.96 in /  1014.4 hPa WNW 2.0 mph /  3.2 km/h 7.0 mph /  11.3 km/h 62 % 0.00 in /  0 mm
13:36 50.7 °F /  10.4 °C 37.7 °F /  3.2 °C 29.96 in /  1014.4 hPa WNW 3.0 mph /  4.8 km/h 7.0 mph /  11.3 km/h 61 % 0.00 in /  0 mm
13:41 50.9 °F /  10.5 °C 37.9 °F /  3.3 °C 29.96 in /  1014.4 hPa WNW 3.0 mph /  4.8 km/h 6.0 mph /  9.7 km/h 61 % 0.00 in /  0 mm
13:46 50.9 °F /  10.5 °C 38.3 °F /  3.5 °C 29.95 in /  1014.1 hPa WSW 2.0 mph /  3.2 km/h 7.0 mph /  11.3 km/h 62 % 0.00 in /  0 mm
13:51 50.7 °F /  10.4 °C 37.7 °F /  3.2 °C 29.95 in /  1014.1 hPa WSW 3.0 mph /  4.8 km/h 9.0 mph /  14.5 km/h 61 % 0.00 in /  0 mm
13:56 50.5 °F /  10.3 °C 38.0 °F /  3.3 °C 29.95 in /  1014.1 hPa WSW 3.0 mph /  4.8 km/h 8.0 mph /  12.9 km/h 62 % 0.00 in /  0 mm
14:01 50.3 °F /  10.2 °C 37.8 °F /  3.2 °C 29.95 in /  1014.1 hPa West 4.4 mph /  7.1 km/h 5.0 mph /  8 km/h 62 % 0.00 in /  0 mm
14:06 50.0 °F /  10 °C 37.9 °F /  3.3 °C 29.95 in /  1014.1 hPa West 3.0 mph /  4.8 km/h 8.0 mph /  12.9 km/h 63 % 0.00 in /  0 mm
14:11 49.8 °F /  9.9 °C 37.7 °F /  3.2 °C 29.94 in /  1013.8 hPa West 2.0 mph /  3.2 km/h 6.0 mph /  9.7 km/h 63 % 0.00 in /  0 mm
14:16 49.6 °F /  9.8 °C 37.9 °F /  3.3 °C 29.94 in /  1013.8 hPa West 3.0 mph /  4.8 km/h 8.0 mph /  12.9 km/h 64 % 0.00 in /  0 mm
14:21 49.5 °F /  9.7 °C 37.8 °F /  3.2 °C 29.94 in /  1013.8 hPa West 5.0 mph /  8 km/h 7.0 mph /  11.3 km/h 64 % 0.00 in /  0 mm
14:26 49.4 °F /  9.7 °C 37.7 °F /  3.2 °C 29.94 in /  1013.8 hPa WSW 2.2 mph /  3.5 km/h 4.6 mph /  7.4 km/h 64 % 0.00 in /  0 mm
14:31 49.4 °F /  9.7 °C 38.1 °F /  3.4 °C 29.94 in /  1013.8 hPa WSW 5.0 mph /  8 km/h 8.0 mph /  12.9 km/h 65 % 0.00 in /  0 mm
14:36 49.4 °F /  9.7 °C 38.1 °F /  3.4 °C 29.93 in /  1013.4 hPa WSW 0.7 mph /  1.1 km/h 4.6 mph /  7.4 km/h 65 % 0.00 in /  0 mm
14:41 49.4 °F /  9.7 °C 38.1 °F /  3.4 °C 29.93 in /  1013.4 hPa WSW 2.0 mph /  3.2 km/h 6.0 mph /  9.7 km/h 65 % 0.00 in /  0 mm
14:46 49.3 °F /  9.6 °C 38.0 °F /  3.3 °C 29.93 in /  1013.4 hPa WSW 3.0 mph /  4.8 km/h 7.0 mph /  11.3 km/h 65 % 0.00 in /  0 mm
14:51 49.3 °F /  9.6 °C 38.0 °F /  3.3 °C 29.93 in /  1013.4 hPa WSW 3.4 mph /  5.5 km/h 8.1 mph /  13 km/h 65 % 0.00 in /  0 mm
14:56 49.3 °F /  9.6 °C 38.0 °F /  3.3 °C 29.92 in /  1013.1 hPa WSW 2.0 mph /  3.2 km/h 7.0 mph /  11.3 km/h 65 % 0.00 in /  0 mm
15:01 49.4 °F /  9.7 °C 38.1 °F /  3.4 °C 29.92 in /  1013.1 hPa WSW 4.1 mph /  6.6 km/h 9.0 mph /  14.5 km/h 65 % 0.00 in /  0 mm
15:06 49.5 °F /  9.7 °C 38.6 °F /  3.7 °C 29.92 in /  1013.1 hPa SW 3.0 mph /  4.8 km/h 9.0 mph /  14.5 km/h 66 % 0.00 in /  0 mm
15:11 49.6 °F /  9.8 °C 37.9 °F /  3.3 °C 29.92 in /  1013.1 hPa SW 5.0 mph /  8 km/h 9.0 mph /  14.5 km/h 64 % 0.00 in /  0 mm
15:16 49.7 °F /  9.8 °C 38.0 °F /  3.3 °C 29.92 in /  1013.1 hPa SW 7.4 mph /  11.9 km/h 8.1 mph /  13 km/h 64 % 0.00 in /  0 mm
15:21 49.9 °F /  9.9 °C 38.2 °F /  3.4 °C 29.92 in /  1013.1 hPa SW 3.0 mph /  4.8 km/h 8.0 mph /  12.9 km/h 64 % 0.00 in /  0 mm
15:26 50.0 °F /  10 °C 38.3 °F /  3.5 °C 29.91 in /  1012.8 hPa SW 5.0 mph /  8 km/h 8.0 mph /  12.9 km/h 64 % 0.00 in /  0 mm
15:31 50.1 °F /  10.1 °C 38.4 °F /  3.6 °C 29.91 in /  1012.8 hPa SSE 5.6 mph /  9 km/h 8.1 mph /  13 km/h 64 % 0.00 in /  0 mm
15:36 50.1 °F /  10.1 °C 38.4 °F /  3.6 °C 29.91 in /  1012.8 hPa WSW 1.3 mph /  2.1 km/h 5.8 mph /  9.3 km/h 64 % 0.00 in /  0 mm
15:41 50.1 °F /  10.1 °C 38.4 °F /  3.6 °C 29.90 in /  1012.4 hPa SW 4.0 mph /  6.4 km/h 8.1 mph /  13 km/h 64 % 0.00 in /  0 mm
15:46 50.2 °F /  10.1 °C 38.5 °F /  3.6 °C 29.90 in /  1012.4 hPa SW 5.0 mph /  8 km/h 9.2 mph /  14.8 km/h 64 % 0.00 in /  0 mm
15:51 50.2 °F /  10.1 °C 38.5 °F /  3.6 °C 29.90 in /  1012.4 hPa SSW 3.8 mph /  6.1 km/h 6.9 mph /  11.1 km/h 64 % 0.00 in /  0 mm
15:56 50.1 °F /  10.1 °C 38.4 °F /  3.6 °C 29.89 in /  1012.1 hPa SSW 2.1 mph /  3.4 km/h 8.1 mph /  13 km/h 64 % 0.00 in /  0 mm
16:01 50.1 °F /  10.1 °C 38.8 °F /  3.8 °C 29.89 in /  1012.1 hPa SW 2.7 mph /  4.3 km/h 4.6 mph /  7.4 km/h 65 % 0.00 in /  0 mm
16:06 50.1 °F /  10.1 °C 38.8 °F /  3.8 °C 29.89 in /  1012.1 hPa South 1.4 mph /  2.3 km/h 3.0 mph /  4.8 km/h 65 % 0.00 in /  0 mm
16:11 50.1 °F /  10.1 °C 38.4 °F /  3.6 °C 29.89 in /  1012.1 hPa SW 5.3 mph /  8.5 km/h 9.2 mph /  14.8 km/h 64 % 0.00 in /  0 mm
16:16 50.1 °F /  10.1 °C 38.8 °F /  3.8 °C 29.88 in /  1011.7 hPa SW 2.4 mph /  3.9 km/h 7.0 mph /  11.3 km/h 65 % 0.00 in /  0 mm
16:21 50.0 °F /  10 °C 38.3 °F /  3.5 °C 29.88 in /  1011.7 hPa SSW 5.9 mph /  9.5 km/h 9.2 mph /  14.8 km/h 64 % 0.00 in /  0 mm
16:27 49.9 °F /  9.9 °C 38.6 °F /  3.7 °C 29.88 in /  1011.7 hPa SSW 2.0 mph /  3.2 km/h 4.6 mph /  7.4 km/h 65 % 0.00 in /  0 mm
16:32 49.9 °F /  9.9 °C 38.6 °F /  3.7 °C 29.88 in /  1011.7 hPa South 3.3 mph /  5.3 km/h 3.5 mph /  5.6 km/h 65 % 0.00 in /  0 mm
16:37 49.8 °F /  9.9 °C 38.5 °F /  3.6 °C 29.88 in /  1011.7 hPa SSW 6.2 mph /  10 km/h 8.1 mph /  13 km/h 65 % 0.00 in /  0 mm
16:42 49.7 °F /  9.8 °C 38.8 °F /  3.8 °C 29.88 in /  1011.7 hPa South 3.3 mph /  5.3 km/h 6.9 mph /  11.1 km/h 66 % 0.00 in /  0 mm
16:47 49.6 °F /  9.8 °C 38.7 °F /  3.7 °C 29.88 in /  1011.7 hPa SSW 4.4 mph /  7.1 km/h 6.9 mph /  11.1 km/h 66 % 0.00 in /  0 mm
16:52 49.4 °F /  9.7 °C 38.5 °F /  3.6 °C 29.88 in /  1011.7 hPa SSW 3.2 mph /  5.1 km/h 6.9 mph /  11.1 km/h 66 % 0.00 in /  0 mm
16:57 49.2 °F /  9.6 °C 38.3 °F /  3.5 °C 29.88 in /  1011.7 hPa West 1.9 mph /  3.1 km/h 5.0 mph /  8 km/h 66 % 0.00 in /  0 mm
17:02 49.0 °F /  9.4 °C 38.5 °F /  3.6 °C 29.88 in /  1011.7 hPa SW 4.4 mph /  7.1 km/h 6.9 mph /  11.1 km/h 67 % 0.00 in /  0 mm
17:07 48.7 °F /  9.3 °C 38.2 °F /  3.4 °C 29.88 in /  1011.7 hPa SW 3.0 mph /  4.8 km/h 5.8 mph /  9.3 km/h 67 % 0.00 in /  0 mm
17:12 48.4 °F /  9.1 °C 38.3 °F /  3.5 °C 29.88 in /  1011.7 hPa SW 2.6 mph /  4.2 km/h 3.5 mph /  5.6 km/h 68 % 0.00 in /  0 mm
17:17 48.2 °F /  9 °C 38.1 °F /  3.4 °C 29.88 in /  1011.7 hPa WSW 4.3 mph /  6.9 km/h 7.0 mph /  11.3 km/h 68 % 0.00 in /  0 mm
17:22 47.9 °F /  8.8 °C 37.8 °F /  3.2 °C 29.88 in /  1011.7 hPa SW 0.5 mph /  0.8 km/h 2.3 mph /  3.7 km/h 68 % 0.00 in /  0 mm
17:27 47.7 °F /  8.7 °C 38.0 °F /  3.3 °C 29.88 in /  1011.7 hPa West 1.1 mph /  1.8 km/h 3.5 mph /  5.6 km/h 69 % 0.00 in /  0 mm
17:32 47.4 °F /  8.6 °C 37.7 °F /  3.2 °C 29.88 in /  1011.7 hPa SW 1.2 mph /  1.9 km/h 5.0 mph /  8 km/h 69 % 0.00 in /  0 mm
17:37 47.0 °F /  8.3 °C 37.7 °F /  3.2 °C 29.88 in /  1011.7 hPa SW 2.6 mph /  4.2 km/h 9.0 mph /  14.5 km/h 70 % 0.00 in /  0 mm
17:42 46.6 °F /  8.1 °C 38.1 °F /  3.4 °C 29.88 in /  1011.7 hPa SSW 4.9 mph /  7.9 km/h 9.0 mph /  14.5 km/h 72 % 0.00 in /  0 mm
17:47 46.3 °F /  7.9 °C 38.1 °F /  3.4 °C 29.88 in /  1011.7 hPa SW 2.5 mph /  4 km/h 4.0 mph /  6.4 km/h 73 % 0.00 in /  0 mm
17:52 46.1 °F /  7.8 °C 37.9 °F /  3.3 °C 29.88 in /  1011.7 hPa SW 1.9 mph /  3.1 km/h 3.5 mph /  5.6 km/h 73 % 0.00 in /  0 mm
17:58 45.8 °F /  7.7 °C 38.0 °F /  3.3 °C 29.88 in /  1011.7 hPa South 1.6 mph /  2.6 km/h 6.0 mph /  9.7 km/h 74 % 0.00 in /  0 mm
18:03 45.6 °F /  7.6 °C 38.1 °F /  3.4 °C 29.88 in /  1011.7 hPa South 2.3 mph /  3.7 km/h 6.9 mph /  11.1 km/h 75 % 0.00 in /  0 mm
18:08 45.5 °F /  7.5 °C 38.4 °F /  3.6 °C 29.88 in /  1011.7 hPa South 2.9 mph /  4.7 km/h 8.1 mph /  13 km/h 76 % 0.00 in /  0 mm
18:13 45.4 °F /  7.4 °C 38.3 °F /  3.5 °C 29.88 in /  1011.7 hPa South 2.7 mph /  4.3 km/h 9.0 mph /  14.5 km/h 76 % 0.00 in /  0 mm
18:18 45.4 °F /  7.4 °C 38.6 °F /  3.7 °C 29.88 in /  1011.7 hPa SSW 2.7 mph /  4.3 km/h 5.8 mph /  9.3 km/h 77 % 0.00 in /  0 mm
18:23 45.4 °F /  7.4 °C 38.6 °F /  3.7 °C 29.87 in /  1011.4 hPa SSW 3.4 mph /  5.5 km/h 6.9 mph /  11.1 km/h 77 % 0.00 in /  0 mm
18:28 45.4 °F /  7.4 °C 38.6 °F /  3.7 °C 29.87 in /  1011.4 hPa South 4.1 mph /  6.6 km/h 9.0 mph /  14.5 km/h 77 % 0.00 in /  0 mm
18:33 45.5 °F /  7.5 °C 39.0 °F /  3.9 °C 29.87 in /  1011.4 hPa South 4.7 mph /  7.6 km/h 8.1 mph /  13 km/h 78 % 0.00 in /  0 mm
18:38 45.5 °F /  7.5 °C 39.0 °F /  3.9 °C 29.87 in /  1011.4 hPa SSW 3.2 mph /  5.1 km/h 7.0 mph /  11.3 km/h 78 % 0.00 in /  0 mm
18:43 45.6 °F /  7.6 °C 39.1 °F /  3.9 °C 29.87 in /  1011.4 hPa SSW 2.5 mph /  4 km/h 5.8 mph /  9.3 km/h 78 % 0.00 in /  0 mm
18:48 45.6 °F /  7.6 °C 39.1 °F /  3.9 °C 29.87 in /  1011.4 hPa SSW 2.4 mph /  3.9 km/h 3.5 mph /  5.6 km/h 78 % 0.00 in /  0 mm
18:53 45.5 °F /  7.5 °C 39.0 °F /  3.9 °C 29.86 in /  1011.1 hPa SSW 1.6 mph /  2.6 km/h 3.5 mph /  5.6 km/h 78 % 0.00 in /  0 mm
18:58 45.4 °F /  7.4 °C 38.9 °F /  3.8 °C 29.86 in /  1011.1 hPa South 1.0 mph /  1.6 km/h 6.9 mph /  11.1 km/h 78 % 0.00 in /  0 mm
19:03 45.3 °F /  7.4 °C 38.8 °F /  3.8 °C 29.86 in /  1011.1 hPa SW 1.0 mph /  1.6 km/h 2.3 mph /  3.7 km/h 78 % 0.00 in /  0 mm
19:08 45.1 °F /  7.3 °C 38.6 °F /  3.7 °C 29.86 in /  1011.1 hPa SSE 1.8 mph /  2.9 km/h 6.0 mph /  9.7 km/h 78 % 0.00 in /  0 mm
19:13 44.9 °F /  7.2 °C 38.8 °F /  3.8 °C 29.87 in /  1011.4 hPa SW 2.7 mph /  4.3 km/h 6.9 mph /  11.1 km/h 79 % 0.00 in /  0 mm
19:18 44.8 °F /  7.1 °C 38.7 °F /  3.7 °C 29.86 in /  1011.1 hPa SSW 3.6 mph /  5.8 km/h 5.8 mph /  9.3 km/h 79 % 0.00 in /  0 mm
19:23 44.6 °F /  7 °C 38.8 °F /  3.8 °C 29.86 in /  1011.1 hPa SW 0.2 mph /  0.3 km/h 4.6 mph /  7.4 km/h 80 % 0.00 in /  0 mm
19:28 44.5 °F /  6.9 °C 38.7 °F /  3.7 °C 29.86 in /  1011.1 hPa SSW 1.1 mph /  1.8 km/h 6.9 mph /  11.1 km/h 80 % 0.00 in /  0 mm
19:34 44.4 °F /  6.9 °C 38.9 °F /  3.8 °C 29.86 in /  1011.1 hPa SSW 2.9 mph /  4.7 km/h 6.9 mph /  11.1 km/h 81 % 0.00 in /  0 mm
19:39 44.3 °F /  6.8 °C 38.8 °F /  3.8 °C 29.85 in /  1010.7 hPa SW 2.4 mph /  3.9 km/h 6.0 mph /  9.7 km/h 81 % 0.00 in /  0 mm
19:44 44.2 °F /  6.8 °C 38.7 °F /  3.7 °C 29.85 in /  1010.7 hPa SW 3.6 mph /  5.8 km/h 5.8 mph /  9.3 km/h 81 % 0.00 in /  0 mm
19:49 44.1 °F /  6.7 °C 39.0 °F /  3.9 °C 29.85 in /  1010.7 hPa SW 3.9 mph /  6.3 km/h 5.8 mph /  9.3 km/h 82 % 0.00 in /  0 mm
19:54 44.1 °F /  6.7 °C 39.0 °F /  3.9 °C 29.85 in /  1010.7 hPa SW 2.6 mph /  4.2 km/h 6.9 mph /  11.1 km/h 82 % 0.00 in /  0 mm
19:59 44.0 °F /  6.7 °C 38.9 °F /  3.8 °C 29.85 in /  1010.7 hPa SSW 2.3 mph /  3.7 km/h 5.8 mph /  9.3 km/h 82 % 0.00 in /  0 mm
20:04 44.0 °F /  6.7 °C 39.2 °F /  4 °C 29.85 in /  1010.7 hPa SSW 3.8 mph /  6.1 km/h 5.8 mph /  9.3 km/h 83 % 0.00 in /  0 mm
20:09 44.0 °F /  6.7 °C 39.2 °F /  4 °C 29.85 in /  1010.7 hPa SW 5.0 mph /  8 km/h 6.9 mph /  11.1 km/h 83 % 0.00 in /  0 mm
20:14 44.0 °F /  6.7 °C 39.2 °F /  4 °C 29.85 in /  1010.7 hPa SW 3.1 mph /  5 km/h 5.8 mph /  9.3 km/h 83 % 0.00 in /  0 mm
20:19 43.9 °F /  6.6 °C 39.1 °F /  3.9 °C 29.85 in /  1010.7 hPa SSW 2.1 mph /  3.4 km/h 6.9 mph /  11.1 km/h 83 % 0.00 in /  0 mm
20:24 43.9 °F /  6.6 °C 39.1 °F /  3.9 °C 29.85 in /  1010.7 hPa WSW 1.0 mph /  1.6 km/h 3.5 mph /  5.6 km/h 83 % 0.00 in /  0 mm
20:29 43.8 °F /  6.6 °C 39.0 °F /  3.9 °C 29.85 in /  1010.7 hPa SW 3.5 mph /  5.6 km/h 4.6 mph /  7.4 km/h 83 % 0.00 in /  0 mm
20:34 43.7 °F /  6.5 °C 39.2 °F /  4 °C 29.85 in /  1010.7 hPa SSW 1.6 mph /  2.6 km/h 3.5 mph /  5.6 km/h 84 % 0.00 in /  0 mm
20:39 43.6 °F /  6.4 °C 39.1 °F /  3.9 °C 29.85 in /  1010.7 hPa SW 0.5 mph /  0.8 km/h 3.5 mph /  5.6 km/h 84 % 0.00 in /  0 mm
20:44 43.6 °F /  6.4 °C 39.1 °F /  3.9 °C 29.85 in /  1010.7 hPa SSW 2.7 mph /  4.3 km/h 6.9 mph /  11.1 km/h 84 % 0.00 in /  0 mm
20:49 43.5 °F /  6.4 °C 39.0 °F /  3.9 °C 29.85 in /  1010.7 hPa SW 2.9 mph /  4.7 km/h 5.8 mph /  9.3 km/h 84 % 0.00 in /  0 mm
20:54 43.5 °F /  6.4 °C 39.0 °F /  3.9 °C 29.85 in /  1010.7 hPa SSW 1.5 mph /  2.4 km/h 3.0 mph /  4.8 km/h 84 % 0.00 in /  0 mm
21:00 43.4 °F /  6.3 °C 38.9 °F /  3.8 °C 29.85 in /  1010.7 hPa SSW 0.3 mph /  0.5 km/h 3.5 mph /  5.6 km/h 84 % 0.00 in /  0 mm
21:05 43.4 °F /  6.3 °C 39.2 °F /  4 °C 29.85 in /  1010.7 hPa South 2.0 mph /  3.2 km/h 3.5 mph /  5.6 km/h 85 % 0.00 in /  0 mm
21:10 43.3 °F /  6.3 °C 39.1 °F /  3.9 °C 29.84 in /  1010.4 hPa WSW 4.3 mph /  6.9 km/h 6.9 mph /  11.1 km/h 85 % 0.00 in /  0 mm
21:15 43.3 °F /  6.3 °C 39.1 °F /  3.9 °C 29.85 in /  1010.7 hPa SSW 1.6 mph /  2.6 km/h 4.0 mph /  6.4 km/h 85 % 0.00 in /  0 mm
21:20 43.4 °F /  6.3 °C 39.2 °F /  4 °C 29.84 in /  1010.4 hPa WSW 0.8 mph /  1.3 km/h 3.5 mph /  5.6 km/h 85 % 0.00 in /  0 mm
21:25 43.4 °F /  6.3 °C 39.5 °F /  4.2 °C 29.84 in /  1010.4 hPa SSW 0.4 mph /  0.6 km/h 6.9 mph /  11.1 km/h 86 % 0.00 in /  0 mm
21:30 43.6 °F /  6.4 °C 39.7 °F /  4.3 °C 29.83 in /  1010 hPa SSW 3.9 mph /  6.3 km/h 5.8 mph /  9.3 km/h 86 % 0.00 in /  0 mm
21:35 43.7 °F /  6.5 °C 39.8 °F /  4.3 °C 29.84 in /  1010.4 hPa SSW 3.0 mph /  4.8 km/h 10.4 mph /  16.7 km/h 86 % 0.00 in /  0 mm
21:40 43.9 °F /  6.6 °C 40.0 °F /  4.4 °C 29.84 in /  1010.4 hPa South 2.4 mph /  3.9 km/h 4.6 mph /  7.4 km/h 86 % 0.00 in /  0 mm
21:45 44.0 °F /  6.7 °C 40.1 °F /  4.5 °C 29.83 in /  1010 hPa SW 2.8 mph /  4.5 km/h 6.9 mph /  11.1 km/h 86 % 0.00 in /  0 mm
21:50 44.2 °F /  6.8 °C 40.0 °F /  4.4 °C 29.83 in /  1010 hPa SW 1.0 mph /  1.6 km/h 3.5 mph /  5.6 km/h 85 % 0.00 in /  0 mm
21:55 44.3 °F /  6.8 °C 40.1 °F /  4.5 °C 29.83 in /  1010 hPa SW 1.5 mph /  2.4 km/h 4.0 mph /  6.4 km/h 85 % 0.00 in /  0 mm
22:00 44.4 °F /  6.9 °C 40.2 °F /  4.6 °C 29.83 in /  1010 hPa SSW 2.3 mph /  3.7 km/h 3.0 mph /  4.8 km/h 85 % 0.00 in /  0 mm
22:05 44.4 °F /  6.9 °C 40.2 °F /  4.6 °C 29.83 in /  1010 hPa SW 2.9 mph /  4.7 km/h 4.6 mph /  7.4 km/h 85 % 0.00 in /  0 mm
22:10 44.4 °F /  6.9 °C 39.9 °F /  4.4 °C 29.82 in /  1009.7 hPa WSW 3.9 mph /  6.3 km/h 6.9 mph /  11.1 km/h 84 % 0.00 in /  0 mm
22:15 44.4 °F /  6.9 °C 40.2 °F /  4.6 °C 29.83 in /  1010 hPa SW 2.3 mph /  3.7 km/h 5.8 mph /  9.3 km/h 85 % 0.00 in /  0 mm
22:21 44.5 °F /  6.9 °C 40.3 °F /  4.6 °C 29.82 in /  1009.7 hPa SW 2.0 mph /  3.2 km/h 6.0 mph /  9.7 km/h 85 % 0.00 in /  0 mm
22:26 44.6 °F /  7 °C 40.4 °F /  4.7 °C 29.81 in /  1009.4 hPa SW 1.0 mph /  1.6 km/h 7.0 mph /  11.3 km/h 85 % 0.00 in /  0 mm
22:31 44.7 °F /  7.1 °C 40.4 °F /  4.7 °C 29.82 in /  1009.7 hPa SW 2.0 mph /  3.2 km/h 7.0 mph /  11.3 km/h 85 % 0.00 in /  0 mm
22:36 44.8 °F /  7.1 °C 40.6 °F /  4.8 °C 29.81 in /  1009.4 hPa SW 1.0 mph /  1.6 km/h 5.0 mph /  8 km/h 85 % 0.00 in /  0 mm
22:41 44.9 °F /  7.2 °C 40.6 °F /  4.8 °C 29.81 in /  1009.4 hPa SSW 1.0 mph /  1.6 km/h 5.0 mph /  8 km/h 85 % 0.00 in /  0 mm
22:46 44.9 °F /  7.2 °C 40.7 °F /  4.8 °C 29.81 in /  1009.4 hPa SSW 2.1 mph /  3.4 km/h 3.5 mph /  5.6 km/h 85 % 0.00 in /  0 mm
22:51 45.0 °F /  7.2 °C 40.5 °F /  4.7 °C 29.81 in /  1009.4 hPa SW 5.0 mph /  8 km/h 8.0 mph /  12.9 km/h 84 % 0.00 in /  0 mm
22:56 45.1 °F /  7.3 °C 40.5 °F /  4.7 °C 29.80 in /  1009 hPa SW 2.0 mph /  3.2 km/h 4.0 mph /  6.4 km/h 84 % 0.00 in /  0 mm
23:01 45.1 °F /  7.3 °C 40.6 °F /  4.8 °C 29.80 in /  1009 hPa SW 0.6 mph /  1 km/h 3.5 mph /  5.6 km/h 84 % 0.00 in /  0 mm
23:06 45.2 °F /  7.3 °C 41.0 °F /  5 °C 29.80 in /  1009 hPa SW 1.0 mph /  1.6 km/h 6.0 mph /  9.7 km/h 85 % 0.00 in /  0 mm
23:11 45.2 °F /  7.3 °C 41.0 °F /  5 °C 29.80 in /  1009 hPa WSW 2.0 mph /  3.2 km/h 7.0 mph /  11.3 km/h 85 % 0.00 in /  0 mm
23:16 45.3 °F /  7.4 °C 41.4 °F /  5.2 °C 29.80 in /  1009 hPa SW 2.0 mph /  3.2 km/h 6.0 mph /  9.7 km/h 86 % 0.00 in /  0 mm
23:21 45.3 °F /  7.4 °C 41.4 °F /  5.2 °C 29.80 in /  1009 hPa SW 1.0 mph /  1.6 km/h 5.0 mph /  8 km/h 86 % 0.00 in /  0 mm
23:26 45.3 °F /  7.4 °C 41.7 °F /  5.4 °C 29.80 in /  1009 hPa SW 1.9 mph /  3.1 km/h 4.6 mph /  7.4 km/h 87 % 0.00 in /  0 mm
23:31 45.3 °F /  7.4 °C 42.0 °F /  5.6 °C 29.80 in /  1009 hPa SW 1.0 mph /  1.6 km/h 4.0 mph /  6.4 km/h 88 % 0.00 in /  0 mm
23:36 45.3 °F /  7.4 °C 42.0 °F /  5.6 °C 29.80 in /  1009 hPa SW 1.0 mph /  1.6 km/h 5.0 mph /  8 km/h 88 % 0.00 in /  0 mm
23:41 45.2 °F /  7.3 °C 41.9 °F /  5.5 °C 29.80 in /  1009 hPa SSW 1.0 mph /  1.6 km/h 4.0 mph /  6.4 km/h 88 % 0.00 in /  0 mm
23:46 45.2 °F /  7.3 °C 42.2 °F /  5.7 °C 29.80 in /  1009 hPa SSW 2.0 mph /  3.2 km/h 4.0 mph /  6.4 km/h 89 % 0.00 in /  0 mm
23:51 45.1 °F /  7.3 °C 42.1 °F /  5.6 °C 29.80 in /  1009 hPa SSW 1.0 mph /  1.6 km/h 4.0 mph /  6.4 km/h 89 % 0.00 in /  0 mm
23:56 45.0 °F /  7.2 °C 42.2 °F /  5.7 °C 29.79 in /  1008.7 hPa SSW 1.0 mph /  1.6 km/h 4.0 mph /  6.4 km/h 90 % 0.00 in /  0 mm
Crab Meadow Weather
Compliments of Weather Underground - 3 mb

Script developed by  Jim McMurry - jmcmurry@mwt.net Adapted for the template by  Wim van der Kuil - Leuven-Template.eu

Extremes: The most widespread U.S. cold wave was in February of 1899. It was so cold that the Mississippi River froze over its entire length, with ice as thick as two inches even in New Orleans.